Temperature
20 20 21 21 23 23 23 22 21 19 19 17 16 17 18 19 19 17 13 11 11 10 9 9 9 8 8 8 8 8 8 7 7 7 6 6 6 6 5 5 5 5 5 5 5 5 5 5 5
20 21 21 22 24 23 23 22 21 20 18 14 14 15 16 17 13 13 13 11 10 9 9 8 9 8 8 8 8 8 8 8 7 7 6 6 6 5 5 5 5 5 5 5 5 5 5 5 5
20 21 21 24 23 23 23 22 21 17 14 14 15 14 16 16 12 13 13 12 10 9 8 8 9 8 8 8 8 8 8 8 8 7 7 6 6 6 5 5 5 5 5 5 5 5 5 5 5
21 21 22 24 23 23 22 22 19 16 14 14 15 16 13 13 13 13 13 12 10 9 8 8 9 8 8 8 8 8 8 8 8 8 7 6 6 6 5 5 5 5 4 4 5 5 5 5 5
21 22 24 23 23 22 21 18 17 18 17 15 15 17 15 14 14 14 13 12 10 9 8 8 8 8 8 8 8 8 8 8 8 7 7 7 6 6 6 5 5 5 5 5 5 5 5 5 6
21 23 23 23 23 22 20 17 16 18 17 15 14 16 16 14 14 13 12 11 10 9 9 8 8 8 8 8 8 8 8 8 8 8 7 7 7 6 6 5 5 5 5 5 5 5 5 5 5
22 23 23 23 23 22 21 16 17 18 17 16 14 16 15 13 13 13 12 10 9 9 9 9 8 8 8 8 8 8 8 8 8 7 7 7 6 6 6 5 5 5 5 5 5 5 5 5 5
20 23 22 22 22 22 19 15 15 16 17 15 14 17 17 13 13 12 11 10 9 9 9 8 8 8 8 8 8 8 7 7 7 7 7 6 6 6 5 5 5 5 5 5 5 5 5 4 4
19 22 22 22 22 22 18 16 15 13 15 12 13 14 14 14 13 12 11 10 9 9 9 8 8 8 8 7 7 7 7 7 7 7 7 6 6 5 5 5 5 5 4 4 4 4 4 4 4
20 22 22 21 21 20 17 16 16 14 15 14 13 12 14 14 13 13 12 12 11 10 9 9 8 8 8 8 7 7 7 7 7 6 6 6 5 5 5 5 5 4 4 4 4 4 4 4 3
20 21 21 18 17 16 16 15 15 15 17 17 16 14 15 14 13 13 13 13 13 11 10 9 9 8 8 8 7 7 7 7 6 6 6 6 5 5 5 4 4 4 4 4 4 3 3 3 3
19 19 17 17 14 14 16 16 15 15 18 18 16 15 15 14 14 14 14 13 12 11 11 10 9 8 8 8 7 7 7 7 6 6 6 6 5 5 5 4 4 4 4 4 3 3 3 2 2
19 18 15 14 13 14 14 15 16 16 16 15 15 15 16 15 15 15 14 13 12 12 11 11 10 9 8 8 7 7 7 7 6 6 6 6 5 5 5 4 4 4 3 3 3 3 2 2 1
17 16 16 15 14 14 14 16 14 16 16 15 14 14 15 15 15 14 14 13 13 13 12 11 10 9 8 8 8 7 7 7 6 6 6 5 5 5 5 4 4 4 3 3 2 2 2 1 1
15 17 18 16 15 15 14 17 17 17 16 15 15 15 14 15 14 14 15 15 14 14 13 12 11 9 9 8 8 7 7 7 6 6 6 5 5 5 5 4 4 3 3 2 2 2 1 1 0
17 19 20 19 16 14 15 20 22 19 16 16 17 16 15 15 16 16 15 15 14 14 13 12 11 10 9 8 8 7 7 7 6 6 6 5 5 5 4 4 3 3 3 2 2 1 0 -0 -0
20 21 21 20 17 15 15 19 22 19 16 17 18 17 16 15 16 17 16 16 15 14 13 12 12 11 10 9 8 7 7 7 6 6 6 6 5 5 4 4 3 3 2 2 1 1 0 -1 -1
20 20 20 20 19 16 16 18 20 20 17 17 18 18 17 16 16 17 17 16 15 14 13 13 12 11 10 9 8 7 7 7 6 6 6 6 5 5 4 4 3 3 2 2 1 0 -0 -1 -2
19 19 19 20 19 15 17 18 20 20 20 18 17 17 17 16 16 15 16 16 16 15 14 13 12 11 10 9 9 8 8 7 7 7 6 6 5 5 4 4 3 3 2 1 1 0 -1 -2 -3
17 18 19 20 16 15 17 17 20 20 19 18 17 17 17 16 16 14 15 16 16 16 15 14 13 12 11 11 10 9 8 8 7 7 7 6 5 5 4 4 3 3 2 1 1 0 -1 -2 -3
18 18 19 18 18 16 15 19 22 22 19 17 16 15 15 15 15 14 15 16 17 16 16 15 14 13 12 12 10 9 8 8 7 8 7 7 6 5 4 4 3 3 2 1 1 0 -1 -2 -3
18 17 16 15 16 18 16 18 21 22 21 21 20 18 16 15 14 14 15 17 17 17 17 16 15 14 13 12 11 11 10 10 10 9 9 8 7 6 5 4 3 3 2 2 1 0 -1 -2 -3
17 15 15 15 15 16 16 16 20 22 22 22 21 19 17 16 15 16 17 18 18 18 17 17 16 15 14 14 13 12 11 11 10 8 8 8 7 7 5 4 4 3 2 2 1 0 -1 -1 -2
15 15 14 14 15 17 17 17 20 23 21 20 20 19 17 16 16 17 17 18 18 18 18 17 16 16 15 15 14 13 13 12 10 9 8 8 8 7 6 5 4 3 2 2 1 0 -1 -1 -2
15 17 19 19 18 19 15 15 19 22 20 19 18 17 16 16 16 17 17 18 18 18 18 18 17 17 16 16 15 15 14 13 12 10 9 8 8 8 7 6 5 4 3 2 1 0 -1 -1 -2
16 17 18 18 18 19 16 16 20 21 19 17 16 16 16 16 16 17 17 17 18 18 18 18 18 17 17 16 16 16 15 14 13 12 10 9 8 8 7 6 5 4 3 2 1 0 -1 -1 -2
16 16 16 17 17 16 17 17 19 21 20 20 19 18 17 16 16 16 16 17 17 17 17 17 17 17 17 16 16 15 15 14 14 12 10 9 8 7 6 5 4 3 2 2 1 -0 -1 -1 -2
14 15 15 16 16 17 18 18 19 21 22 20 19 17 16 15 15 15 15 16 16 16 16 16 17 16 16 16 16 15 15 14 13 12 11 10 9 7 5 4 3 2 2 1 0 -0 -1 -2 -2
14 14 15 16 16 17 17 18 20 20 20 18 17 17 15 14 14 14 14 15 15 16 16 16 16 16 16 15 15 15 14 14 13 12 11 10 8 6 4 3 2 1 1 0 -0 -0 -1 -2 -2
15 15 15 16 17 16 16 18 20 19 18 16 17 16 14 13 13 14 14 14 15 15 15 15 15 15 15 15 14 14 14 13 13 12 11 9 7 5 3 2 1 0 -0 -1 -1 -1 -1 -2 -2
Wind_Speed
2 2 3 3 4 4 3 0 2 5 5 4 4 4 4 4 3 1 6 11 14 16 15 15 13 12 10 9 8 8 9 9 10 10 11 12 13 13 14 15 15 16 17 18 19 19 20 20 21
1 2 3 3 5 5 2 2 5 5 4 5 5 4 4 4 1 5 9 13 16 16 14 14 14 13 11 10 9 8 9 9 9 10 10 11 12 12 13 14 14 15 16 17 17 18 19 19 20
1 2 3 4 5 5 4 1 4 5 6 6 6 5 4 3 5 7 11 17 16 15 14 14 15 13 12 10 9 9 8 8 9 9 9 10 10 11 12 12 13 14 14 15 16 17 18 18 19
2 2 3 6 6 3 3 1 5 8 7 6 6 5 4 2 4 8 15 19 17 16 15 15 15 14 12 11 10 9 8 8 8 8 8 9 9 10 10 11 12 12 13 14 15 16 16 17 18
2 3 6 8 8 3 2 2 7 10 8 9 8 5 5 6 6 11 17 19 17 17 15 15 16 14 13 12 11 10 9 8 8 8 7 8 8 8 9 9 10 11 12 13 14 14 15 16 17
2 4 8 10 10 4 4 6 7 9 8 7 8 6 4 8 11 14 18 17 17 16 15 14 17 15 14 13 11 10 10 9 8 8 7 7 7 7 7 8 8 9 10 11 12 13 14 15 16
3 5 10 12 12 10 4 7 7 9 11 10 6 6 5 10 13 15 17 17 17 17 16 14 16 16 15 13 13 11 11 10 9 8 7 7 6 6 6 6 7 7 8 9 10 11 12 13 14
2 5 10 11 12 12 4 8 5 9 8 4 7 7 4 10 16 16 16 15 15 16 16 16 15 15 15 14 14 13 12 11 10 9 8 7 6 6 5 4 5 6 6 7 8 9 10 10 12
2 7 12 12 11 8 6 8 5 4 6 6 7 5 3 13 18 18 16 15 16 16 17 17 17 16 15 14 14 14 13 12 11 11 9 7 5 5 4 4 4 4 5 5 6 7 8 7 9
3 8 11 5 5 4 5 7 7 6 10 10 10 10 7 16 20 21 22 22 22 22 20 19 18 17 16 14 13 13 13 13 12 10 10 7 6 5 4 5 4 3 3 3 5 5 5 5 6
3 7 5 4 4 4 5 7 6 9 13 15 14 16 17 18 21 22 23 24 23 22 21 19 20 19 18 15 14 12 12 12 12 12 11 9 7 6 6 5 5 3 2 1 1 2 4 5 6
4 5 4 4 3 4 6 5 8 14 15 7 10 10 19 21 23 25 25 23 22 22 22 21 22 19 19 17 15 14 13 12 12 13 13 11 8 8 7 6 5 4 3 2 2 2 3 4 5
5 4 4 5 6 7 8 12 10 17 18 12 7 12 19 22 23 24 23 22 21 23 23 22 23 21 20 18 15 15 15 14 14 13 14 13 10 9 8 7 6 5 4 4 3 3 3 4 5
2 4 6 6 7 5 8 12 9 18 13 15 16 17 19 21 23 22 22 23 24 24 24 23 23 24 22 19 17 16 15 15 14 14 15 15 12 10 9 8 7 7 6 5 4 4 4 5 6
2 6 8 7 6 4 6 13 13 17 9 14 17 19 20 21 22 24 24 24 24 24 23 24 23 24 23 21 19 16 16 16 15 15 16 17 15 13 11 9 9 8 7 6 6 5 6 6 7
3 5 6 3 5 4 5 16 13 8 12 17 18 19 19 21 23 23 23 23 23 22 23 23 20 22 23 21 19 17 16 17 16 16 16 18 18 15 13 10 10 9 8 8 7 6 6 6 7
4 6 10 8 6 5 8 18 21 9 13 18 19 19 20 20 22 23 23 23 22 22 22 23 23 23 22 22 19 18 17 17 17 16 16 18 19 18 15 12 11 11 10 9 8 7 6 7 7
8 11 13 13 4 7 13 23 28 21 18 22 22 21 20 21 23 21 22 22 21 21 21 22 23 23 21 19 16 15 15 16 17 17 18 19 19 20 18 14 13 13 10 9 8 9 8 7 7
9 12 17 17 7 7 17 26 30 26 20 23 23 22 22 22 20 17 18 20 20 21 22 22 23 23 20 17 16 16 16 14 15 18 20 21 21 21 20 15 15 14 11 11 11 9 10 8 7
8 12 16 13 3 6 17 27 28 21 17 17 18 19 19 19 17 16 16 18 21 22 23 23 24 23 23 19 17 14 14 13 15 17 20 23 23 22 21 19 15 15 12 13 12 11 9 8 7
10 11 13 13 11 7 11 15 11 9 7 9 11 13 14 14 15 14 16 18 20 22 24 22 24 24 24 22 15 13 12 11 14 16 16 22 25 25 23 22 19 16 14 12 14 13 13 10 9
10 5 8 9 10 8 6 9 14 10 11 8 9 6 7 8 10 11 13 16 19 21 19 21 22 23 23 22 20 22 19 19 19 17 16 19 25 26 26 24 22 18 16 14 14 14 12 12 10
5 2 4 6 7 9 5 6 11 9 10 15 15 13 9 6 6 8 11 14 16 16 17 19 20 22 23 24 24 24 23 21 17 17 19 19 20 25 26 25 22 19 16 16 16 15 15 12 12
2 3 3 2 3 5 2 4 9 6 10 16 16 15 13 10 8 6 7 9 12 13 15 17 19 22 22 24 25 26 27 24 22 21 19 17 16 17 24 25 23 21 18 17 17 16 17 14 14
3 5 5 4 3 3 1 6 10 10 10 12 14 14 14 12 10 9 7 7 9 13 15 17 19 21 22 24 25 27 28 26 26 23 21 19 16 17 21 22 21 20 20 19 18 16 16 17 16
2 4 4 5 6 7 3 7 9 10 10 8 7 9 11 14 14 12 11 9 8 10 13 16 19 20 20 23 24 24 25 20 20 23 21 20 18 18 20 23 22 22 21 20 18 16 16 15 16
2 3 2 5 6 7 7 7 12 7 3 6 10 13 16 17 16 15 13 10 9 8 11 14 16 18 19 21 22 22 23 23 22 21 21 20 19 17 21 22 22 22 21 20 19 15 17 15 16
2 2 3 4 5 7 8 8 7 10 13 14 14 17 19 19 17 16 13 11 9 8 8 10 13 16 16 18 19 17 21 22 22 20 23 22 21 20 20 21 22 22 21 20 19 16 16 17 16
5 4 6 5 5 6 8 8 6 11 13 13 14 18 19 18 16 15 13 12 10 8 7 7 9 12 13 15 16 18 19 19 20 21 22 21 20 21 21 21 21 21 21 20 20 19 18 18 17
5 6 6 6 7 7 9 12 9 10 9 10 17 17 16 14 13 13 13 12 11 9 8 7 8 10 12 13 14 17 18 18 20 21 21 20 21 20 21 20 21 21 21 21 21 21 19 19 19
Wind_Direction
161 209 226 225 222 244 287 121 180 170 175 154 157 193 218 230 262 353 129 152 149 153 156 155 151 145 138 129 118 105 94 85 77 72 68 64 60 56 54 51 49 48 45 43 42 40 39 38 37
202 231 218 227 249 259 276 177 203 188 147 146 173 203 223 226 113 124 153 160 158 156 158 156 152 150 145 138 128 116 104 94 85 77 72 68 62 57 55 52 49 47 45 44 41 39 37 35 35
206 257 227 225 249 276 307 186 196 147 153 174 185 218 244 215 170 170 163 161 163 161 160 155 158 156 152 146 138 127 116 104 93 84 77 72 66 59 56 52 50 47 45 43 40 38 36 33 32
238 211 225 243 254 277 300 193 173 166 177 203 205 210 217 196 172 166 157 163 168 165 164 162 164 162 158 153 147 137 127 116 105 94 85 79 71 62 58 54 50 47 44 42 40 38 35 32 31
244 243 238 247 262 261 238 211 185 195 191 195 207 229 211 166 159 157 163 169 172 169 169 168 169 168 165 162 156 148 139 129 119 108 97 87 79 69 62 58 53 48 43 41 39 37 34 31 29
236 257 255 262 272 265 226 196 189 215 206 188 207 232 206 152 165 166 167 174 176 173 173 174 175 174 172 170 166 160 153 144 134 123 110 98 87 78 67 62 57 50 45 41 39 36 33 30 28
284 272 269 275 280 278 228 177 205 217 213 204 203 223 175 177 173 168 171 176 180 179 179 180 179 178 179 177 173 169 163 156 148 138 126 112 100 89 75 68 63 54 46 43 40 36 33 28 26
328 269 266 269 276 284 186 177 221 220 221 187 200 230 207 176 167 168 173 180 185 187 188 186 183 181 181 181 179 176 172 168 161 150 140 129 116 105 93 84 72 61 49 44 40 36 32 27 25
261 258 265 272 274 281 176 195 202 218 217 203 217 238 70 145 158 168 177 187 192 195 195 193 189 186 185 185 181 181 179 176 170 164 156 155 156 145 134 94 84 72 55 47 41 34 26 20 23
233 260 270 280 268 273 203 219 207 206 222 223 222 212 158 159 170 179 187 193 196 198 198 197 196 192 191 188 185 186 184 181 186 182 176 182 180 170 154 126 112 95 72 59 41 29 14 4 5
238 261 274 251 254 261 236 228 217 224 236 230 225 206 179 178 186 193 199 200 200 199 197 199 200 197 195 193 191 190 189 189 194 195 192 190 187 181 187 184 173 173 183 204 6 327 1 1 0
245 250 258 261 237 239 241 238 228 230 246 253 235 200 179 188 195 201 204 205 202 201 201 200 200 200 200 198 197 197 196 195 196 197 197 195 196 200 198 204 201 206 213 234 271 314 335 336 336
242 254 245 250 246 248 252 246 255 251 248 239 216 189 192 199 204 208 209 208 205 204 203 202 200 201 201 201 202 202 202 201 199 197 199 201 201 203 201 206 206 213 218 229 253 275 299 305 309
268 263 261 255 245 243 255 262 252 261 248 230 221 214 209 209 209 209 210 210 208 207 205 202 202 203 201 202 204 204 204 203 203 201 202 204 206 205 204 207 210 214 218 228 244 261 277 284 288
254 279 268 234 231 243 266 267 239 252 232 230 226 225 221 219 214 214 211 211 209 208 206 203 203 204 204 206 208 207 206 204 205 205 205 204 207 207 206 211 210 212 214 221 234 243 258 268 273
248 264 276 209 207 213 248 274 272 251 227 239 237 231 225 223 220 219 216 214 212 209 207 205 202 205 206 207 209 210 209 208 208 207 207 207 208 208 209 212 213 209 210 219 227 238 249 254 264
240 284 297 297 207 217 238 275 283 263 238 249 248 239 231 228 224 221 217 214 211 209 206 205 203 205 207 208 210 213 213 212 212 210 210 209 209 208 210 214 213 208 211 217 222 230 240 252 260
297 299 295 296 269 236 260 274 282 277 250 256 257 250 239 233 229 220 215 212 210 209 207 207 205 208 206 207 211 215 218 218 216 214 213 210 209 208 211 215 214 209 212 215 217 226 231 246 259
285 282 287 293 297 264 275 282 285 287 273 260 258 255 247 241 236 222 212 209 207 207 208 207 206 207 205 205 208 211 216 217 218 219 217 213 211 209 210 213 212 211 215 216 218 224 233 237 243
258 279 289 299 288 270 292 289 287 287 279 269 266 262 255 251 240 224 212 206 206 207 207 208 208 206 206 208 208 213 219 223 222 221 221 217 214 211 210 213 212 211 215 217 218 219 227 234 229
264 268 291 301 311 269 304 296 293 305 303 289 276 269 265 256 247 228 214 211 208 210 209 208 208 208 208 207 208 211 218 225 221 221 220 217 215 212 211 212 213 212 213 216 214 214 220 228 226
283 289 277 289 305 306 335 306 304 325 330 352 355 334 295 269 253 241 223 216 214 215 212 212 211 211 209 206 209 210 213 220 223 222 221 218 216 214 213 212 213 213 214 217 215 214 218 225 233
280 339 277 283 286 290 270 269 292 321 350 3 4 6 358 335 289 259 239 228 223 217 214 214 214 214 211 209 212 216 224 229 230 225 224 221 216 215 213 212 211 213 214 215 214 213 215 219 227
261 266 241 222 248 266 251 264 293 333 348 341 344 355 3 359 343 309 271 244 231 219 214 213 214 217 213 213 215 219 224 227 228 226 223 221 218 214 214 211 211 212 212 213 213 214 216 218 224
239 291 292 276 264 281 125 259 264 298 328 322 323 334 345 351 349 336 315 271 241 224 217 214 215 219 216 216 218 221 226 228 230 229 226 222 220 216 213 209 210 210 211 211 210 212 216 219 223
247 275 303 305 300 305 271 255 272 303 313 315 324 338 353 357 351 339 326 300 270 240 223 218 219 222 218 218 222 225 227 229 233 232 228 226 224 221 215 211 211 210 208 207 208 212 216 219 223
234 225 315 283 282 279 270 273 290 281 288 352 1 3 358 350 342 336 329 316 295 267 239 225 225 226 223 223 225 227 227 228 232 233 232 231 228 224 218 213 212 211 208 206 206 212 214 217 222
299 207 206 252 286 288 280 272 265 295 322 338 346 347 343 340 337 335 331 325 312 293 268 242 234 234 232 228 228 230 230 231 233 233 233 231 229 225 220 215 213 211 208 206 206 212 215 217 221
179 195 224 246 260 278 291 277 259 286 311 327 334 336 336 335 335 335 333 331 325 315 296 267 249 244 241 236 234 235 236 235 234 235 236 234 232 227 224 219 215 212 209 206 207 210 211 216 223
234 233 215 250 265 248 278 282 278 283 308 321 325 332 336 338 338 339 340 340 340 334 320 293 269 254 248 243 240 239 239 237 236 236 236 234 232 228 224 220 217 214 211 206 207 210 211 215 221
Height
1560 1561 1563 1565 1563 1562 1563 1565 1567 1572 1574 1577 1578 1579 1578 1576 1577 1582 1581 1579 1581 1583 1586 1588 1589 1590 1591 1592 1592 1591 1591 1590 1589 1588 1587 1586 1585 1584 1582 1581 1579 1578 1576 1574 1572 1570 1567 1565 1563
1561 1562 1565 1565 1561 1565 1563 1564 1568 1570 1575 1577 1579 1579 1578 1577 1577 1577 1575 1577 1580 1582 1585 1587 1588 1589 1590 1591 1591 1591 1590 1589 1588 1587 1586 1585 1584 1583 1582 1580 1579 1578 1576 1574 1572 1569 1567 1565 1563
1562 1563 1565 1561 1561 1563 1562 1563 1566 1573 1576 1577 1578 1578 1577 1576 1575 1574 1574 1575 1578 1581 1584 1585 1587 1588 1589 1589 1590 1590 1589 1588 1588 1587 1586 1585 1583 1582 1581 1580 1578 1577 1575 1573 1571 1569 1567 1565 1563
1563 1564 1564 1560 1561 1561 1562 1564 1569 1573 1576 1577 1577 1576 1574 1572 1571 1572 1572 1574 1577 1580 1582 1584 1585 1587 1588 1588 1589 1589 1588 1588 1587 1586 1585 1584 1583 1582 1580 1579 1578 1576 1575 1573 1571 1569 1567 1565 1563
1563 1563 1560 1560 1560 1561 1565 1568 1570 1570 1572 1573 1574 1572 1571 1569 1568 1569 1570 1572 1575 1578 1581 1583 1584 1585 1586 1587 1587 1587 1587 1586 1586 1585 1584 1583 1582 1581 1579 1578 1577 1575 1574 1572 1570 1568 1566 1565 1563
1565 1561 1560 1561 1557 1560 1564 1567 1569 1568 1568 1571 1572 1570 1568 1565 1566 1567 1568 1571 1574 1576 1578 1580 1581 1583 1584 1585 1586 1586 1585 1585 1584 1584 1583 1582 1581 1580 1578 1577 1576 1574 1573 1571 1569 1568 1566 1564 1562
1565 1561 1560 1559 1558 1557 1561 1565 1566 1565 1566 1567 1568 1567 1565 1562 1563 1565 1567 1569 1572 1574 1576 1578 1580 1581 1582 1583 1584 1584 1584 1583 1583 1582 1581 1580 1579 1578 1577 1576 1575 1573 1572 1570 1569 1567 1565 1564 1562
1563 1562 1559 1558 1557 1555 1560 1563 1563 1563 1563 1564 1565 1563 1561 1559 1560 1562 1564 1567 1569 1570 1572 1575 1577 1578 1580 1581 1581 1581 1581 1581 1581 1580 1579 1578 1578 1577 1576 1574 1573 1572 1570 1569 1567 1566 1564 1562 1561
1563 1562 1558 1556 1556 1553 1559 1561 1561 1560 1561 1560 1559 1559 1557 1556 1557 1559 1561 1562 1564 1566 1568 1570 1573 1575 1576 1578 1578 1579 1579 1578 1578 1577 1577 1576 1575 1574 1573 1572 1571 1570 1568 1567 1566 1564 1563 1561 1559
1563 1560 1555 1555 1556 1556 1558 1558 1558 1558 1557 1556 1554 1553 1553 1553 1554 1555 1556 1557 1558 1560 1563 1566 1568 1570 1572 1574 1575 1575 1575 1575 1575 1575 1574 1574 1573 1572 1571 1570 1569 1568 1566 1565 1564 1562 1561 1559 1558
1560 1557 1556 1557 1558 1557 1557 1556 1556 1554 1549 1547 1547 1547 1547 1549 1550 1550 1551 1553 1554 1557 1559 1561 1563 1566 1568 1569 1571 1571 1572 1572 1572 1572 1571 1571 1570 1569 1568 1567 1566 1565 1564 1563 1561 1560 1559 1557 1555
1560 1558 1558 1557 1557 1556 1555 1553 1551 1548 1542 1543 1543 1543 1542 1543 1544 1545 1546 1548 1550 1552 1553 1556 1558 1560 1563 1565 1566 1567 1567 1568 1568 1568 1568 1567 1567 1566 1565 1564 1563 1562 1561 1560 1559 1558 1556 1555 1552
1558 1556 1557 1556 1555 1554 1553 1550 1547 1539 1537 1539 1537 1537 1537 1538 1539 1540 1542 1544 1545 1546 1548 1550 1553 1555 1557 1559 1560 1562 1563 1563 1564 1564 1564 1563 1563 1563 1562 1561 1560 1559 1558 1557 1556 1554 1553 1551 1549
1557 1556 1555 1553 1553 1552 1550 1545 1544 1530 1533 1532 1531 1531 1531 1532 1533 1534 1535 1536 1538 1540 1542 1544 1546 1549 1551 1553 1555 1557 1558 1559 1559 1559 1559 1559 1559 1558 1558 1557 1556 1555 1554 1553 1552 1551 1549 1547 1545
1557 1555 1549 1549 1550 1549 1549 1538 1532 1525 1527 1526 1525 1524 1524 1524 1525 1526 1527 1530 1532 1534 1537 1538 1540 1543 1545 1547 1550 1551 1552 1553 1553 1554 1554 1554 1554 1553 1553 1552 1552 1551 1550 1549 1547 1546 1544 1543 1541
1555 1550 1544 1543 1547 1547 1549 1529 1520 1522 1522 1519 1518 1517 1516 1516 1516 1518 1520 1523 1526 1528 1530 1532 1534 1536 1538 1541 1543 1545 1546 1547 1547 1548 1548 1548 1548 1548 1547 1547 1546 1545 1545 1544 1542 1541 1540 1538 1536
1548 1544 1541 1539 1543 1544 1543 1525 1514 1517 1516 1513 1511 1510 1509 1508 1508 1510 1512 1515 1518 1521 1523 1525 1527 1530 1532 1535 1537 1538 1539 1540 1540 1541 1541 1541 1542 1542 1542 1541 1541 1540 1539 1538 1537 1536 1534 1533 1531
1546 1543 1540 1537 1537 1542 1536 1521 1507 1508 1509 1505 1502 1501 1501 1500 1499 1503 1505 1508 1511 1514 1516 1519 1521 1523 1526 1528 1529 1530 1531 1532 1532 1532 1533 1534 1535 1535 1535 1535 1534 1534 1533 1532 1531 1530 1528 1527 1525
1548 1547 1541 1534 1535 1539 1527 1514 1499 1495 1497 1494 1493 1492 1492 1491 1494 1497 1498 1501 1503 1506 1508 1511 1513 1516 1518 1518 1519 1520 1521 1523 1523 1524 1526 1526 1527 1527 1527 1527 1527 1527 1526 1526 1525 1524 1523 1521 1519
1549 1546 1537 1531 1537 1537 1523 1509 1493 1488 1487 1486 1485 1484 1484 1485 1488 1489 1490 1493 1495 1498 1501 1503 1505 1508 1509 1510 1512 1513 1515 1515 1516 1516 1517 1518 1518 1519 1519 1519 1519 1519 1519 1518 1518 1517 1516 1515 1514
1545 1543 1536 1536 1533 1531 1530 1503 1484 1481 1484 1483 1481 1480 1479 1480 1481 1483 1483 1486 1488 1491 1493 1496 1498 1500 1502 1504 1505 1506 1506 1506 1506 1505 1506 1507 1509 1509 1510 1511 1511 1511 1511 1510 1510 1510 1509 1509 1508
1541 1540 1542 1541 1538 1528 1532 1520 1487 1480 1480 1478 1478 1477 1476 1476 1477 1478 1479 1480 1482 1485 1488 1490 1492 1494 1495 1496 1496 1495 1495 1494 1494 1496 1496 1498 1499 1499 1500 1501 1502 1502 1502 1502 1502 1502 1501 1501 1501
1540 1544 1543 1541 1538 1535 1528 1527 1495 1481 1478 1476 1477 1477 1477 1476 1475 1475 1476 1477 1478 1480 1482 1484 1485 1486 1487 1487 1487 1487 1486 1486 1488 1487 1486 1486 1486 1488 1489 1490 1491 1492 1492 1492 1493 1493 1493 1492 1493
1544 1543 1542 1542 1537 1531 1524 1525 1500 1480 1483 1481 1479 1479 1478 1477 1475 1474 1474 1474 1475 1475 1476 1477 1477 1478 1478 1478 1478 1477 1477 1477 1477 1476 1475 1475 1474 1475 1476 1478 1479 1480 1481 1482 1483 1483 1484 1484 1484
1544 1539 1531 1526 1525 1520 1528 1526 1503 1483 1485 1486 1484 1481 1479 1477 1475 1474 1473 1472 1471 1470 1470 1470 1470 1470 1471 1470 1469 1468 1468 1468 1466 1466 1465 1464 1462 1462 1463 1465 1467 1468 1470 1472 1473 1473 1474 1474 1474
1542 1541 1538 1537 1528 1520 1525 1521 1492 1483 1486 1486 1484 1482 1480 1477 1475 1473 1470 1468 1467 1465 1464 1464 1464 1464 1463 1462 1461 1460 1459 1458 1456 1456 1454 1452 1451 1450 1452 1453 1455 1457 1459 1461 1462 1463 1464 1465 1465
1541 1540 1541 1538 1534 1536 1518 1509 1493 1482 1482 1482 1482 1481 1480 1477 1474 1471 1468 1465 1463 1461 1460 1458 1458 1457 1456 1455 1453 1452 1450 1448 1446 1445 1444 1442 1440 1440 1440 1441 1443 1445 1447 1449 1451 1452 1454 1455 1456
1544 1541 1542 1539 1535 1528 1514 1509 1496 1480 1478 1479 1480 1480 1479 1476 1472 1468 1465 1462 1459 1457 1456 1454 1452 1451 1450 1448 1446 1444 1442 1439 1437 1435 1432 1430 1430 1430 1429 1429 1430 1433 1435 1438 1440 1442 1444 1446 1446
1544 1544 1539 1534 1534 1529 1519 1504 1486 1483 1481 1483 1483 1481 1479 1475 1470 1466 1462 1459 1456 1454 1452 1450 1448 1446 1444 1442 1439 1436 1433 1431 1428 1425 1422 1421 1420 1419 1419 1419 1420 1422 1424 1426 1429 1431 1434 1436 1437
1537 1534 1534 1533 1525 1528 1520 1502 1480 1482 1483 1485 1483 1480 1477 1474 1470 1465 1462 1458 1455 1453 1450 1447 1445 1442 1439 1436 1433 1429 1426 1422 1419 1415 1413 1411 1409 1408 1408 1409 1409 1410 1412 1415 1417 1420 1423 1425 1426